EUTELSAT 70B 1 39020U 12069A 21061.92341204 -.00000052 00000-0 00000-0 0 9995 2 39020 0.0532 25.8277 0002183 203.0092 334.9773 1.00270434 30131 BLOCK DM-SL R/B 1 39021U 12069B 21061.79287683 -.00000026 00000-0 00000-0 0 9992 2 39021 0.9041 337.5182 6877097 283.0844 22.1099 2.21900819 66875